Other Public Products
Issued by NWS Grand Forks, ND

Home | Current Version | Previous Version | Text Only | Print | Product List | Glossary On
Versions: 1 2 3 4 5 6 7 8 9 10 11 12 13 14 15 16 17 18 19 20 21 22 23 24 25 26 27 28 29 30 31 32 33 34 35 36 37 38 39 40 41 42 43 44 45 46 47 48 49 50
000
FPUS83 KFGF 231031
OPUFGF
PRAIRIE TO PINES WEATHER ROUNDUP
NATIONAL WEATHER SERVICE EASTERN NORTH DAKOTA/GRAND FORKS ND
400 AM CST MON JAN 23 2017

 **SATELLITE DATA USED TO AUGMENT SKY COVER AT AUTOMATED STATIONS**
 *****  WEATHER ACROSS EASTERN NORTH DAKOTA  *****

CITY           SKY/WX    TMP DP  RH WIND       PRES   REMARKS
GRAND FORKS    CLOUDY    33  27  78 W5        29.77S
GRAND FORKS AF CLOUDY    32  27  83 W12       29.77S WCI  23
GRAND CITY NWS NOT AVBL
BUXTON           N/A     31  30  97 W9          N/A  WCI  23
DEVILS LAKE    CLOUDY    29  26  89 W10       29.77R WCI  20
FARGO          CLOUDY    35  29  78 W13       29.80S
WAHPETON ARPT  CLOUDY    32  28  86 NW10      29.82S WCI  24
$$

 *****  WEATHER ACROSS CENTRAL AND WESTERN NORTH DAKOTA  *****

CITY           SKY/WX    TMP DP  RH WIND       PRES   REMARKS
JAMESTOWN      CLOUDY    30  25  81 W8        29.79S WCI  22
BISMARCK       CLOUDY    30  23  75 W3        29.81F
MINOT          CLOUDY    28  21  75 W14       29.77F WCI  17
MINOT AFB      CLOUDY    27  21  80 NW12      29.75F WCI  16
GARRISON         N/A     27  22  81 NW9       29.78F WCI  18
WILLISTON      CLOUDY    27  24  89 CALM      29.77F
DICKINSON      CLOUDY    24  19  81 CALM      29.75S
HETTINGER      FOG       23  21  92 E3        29.78F VSB 3/4
$$

 *****  OTHER OBSERVATIONS NORTHEAST NORTH DAKOTA  *****

CITY           SKY/WX    TMP DP  RH WIND       PRES   REMARKS
WALHALLA       NOT AVBL
LANGDON        NOT AVBL
CAVALIER       CLOUDY    32  27  80 W6        29.75S
GRAFTON        CLOUDY    32  32 100 SW7       29.78S
CANDO          NOT AVBL
FORT TOTTEN      N/A     28  28  99 W6        29.95S WCI  22
ROLLA            N/A    N/A N/A N/A MISG        N/A
RUGBY            N/A     27  25  93 W16       29.77S WCI  14
 ***** THE ABOVE OBSERVATIONS ARE NON NWS ARE NOT QUALITY
        CONTROLLED AND MAY MIS-REPORT RAIN FOR SNOW...
$$

 *****  OTHER OBSERVATIONS SOUTHEAST NORTH DAKOTA *****

CITY           SKY/WX    TMP DP  RH WIND       PRES   REMARKS
COOPERSTOWN    CLOUDY    30  28  93 W13       29.78S WCI  20
VALLEY CITY    CLOUDY    32  32 100 W8        29.81F WCI  25
OAKES          NOT AVBL
GWINNER        CLOUDY    34  30  86 W10       29.82F
SHEYENNE NWR     N/A     33  27  78 W7        29.95S
BUFFALO          N/A     32  23  70 SW9         N/A  WCI  24
WYNDMERE         N/A     34  30  86 W5          N/A
 ***** THE ABOVE OBSERVATIONS ARE NON NWS ARE NOT QUALITY
       CONTROLLED AND MAY MIS-REPORT RAIN FOR SNOW...
$$

  *****  WEATHER ACROSS NORTHERN MINNESOTA  *****

CITY           SKY/WX    TMP DP  RH WIND       PRES   REMARKS
FLAG ISLAND    FLURRIES  32  30  93 SW3       29.71F
WARROAD        FOG       32  28  86 W5        29.73F VSB 1
ROSEAU         CLOUDY    34  28  80 SW3       29.73F FOG
HALLOCK        CLOUDY    32  30  93 SW5       29.75S
THF RVR FALLS  CLOUDY    31  29  92 W8        29.77S WCI  23
HALSTAD          N/A     31  28  90 W6          N/A
FOSSTON        CLOUDY    28  28 100 W7        29.77S WCI  21
BAUDETTE       CLOUDY    32  31  96 SW5       29.72S FOG
WASKISH        CLOUDY    32  30  93 SW7       29.75S FOG
CROOKSTON      CLOUDY    32  30  93 W7        29.78S
$$
  *****  WEATHER ACROSS CENTRAL AND WEST MINNESOTA  *****

CITY           SKY/WX    TMP DP  RH WIND       PRES   REMARKS
BEMIDJI        CLOUDY    30  29  96 W5        29.76R
PARK RAPIDS    CLOUDY    31  27  85 W9        29.76S WCI  23
WADENA         CLOUDY    30  28  93 W5        29.79R
DETROIT LAKES  CLOUDY    32  30  93 W5        29.79S
MOORHEAD       CLOUDY    32  28  86 W6        29.81S
FERGUS FALLS   CLOUDY    30  30 100 W6        29.85S WCI  24
ELBOW LAKE     CLOUDY    31  30  96 NW5       29.82R FOG
MORRIS MN      CLOUDY    34  28  80 NW9       29.81F
STAPLES        CLOUDY    30  30 100 W5        29.78S
WHEATON        CLOUDY    39  36  87 W8        29.85S
$$
  *****  WEATHER ELSEWHERE ACROSS MINNESOTA  *****

CITY           SKY/WX    TMP DP  RH WIND       PRES   REMARKS
DULUTH         FOG       35  34  96 NW7       29.74S VSB 1/2
INTRNTL FALLS  FOG       33  33 100 SW3       29.74R VSB 3/4
ELY            CLOUDY    32  32 100 CALM      29.73F
CLOQUET        CLOUDY    34  34 100 CALM      29.76R FOG
BRAINERD       CLOUDY    32  32 100 W5        29.78S FOG
HIBBING        CLOUDY    32  32 100 CALM      29.75R
ALEXANDRIA     CLOUDY    31  29  92 NW8       29.80R WCI  23
SAINT CLOUD    CLOUDY    32  32 100 W7        29.79F FOG
MINNEAPOLIS    DRIZZLE   33  32  96 W3        29.81F FOG
$$

  *****  WEATHER ACROSS SOUTH DAKOTA  *****

CITY           SKY/WX    TMP DP  RH WIND       PRES   REMARKS
SIOUX FALLS    CLOUDY    31  29  92 NW8       29.85F WCI  23
BROOKINGS      CLOUDY    30  27  88 NW12      29.83S WCI  20
WATERTOWN      CLOUDY    29  26  89 NW12      29.81F WCI  19
HURON          CLOUDY    30  26  85 NW5       29.85F
SISSETON         N/A     33  30  88 NW13      29.82F WCI  24
ABERDEEN       CLOUDY    31  24  75 NW3       29.83F
MITCHELL       CLOUDY    31  27  85 NW5       29.87F
PIERRE         CLOUDY    27  23  85 CALM      29.84S
MOBRIDGE       CLOUDY    29  23  78 NW5       29.80F WCI  24
RAPID CITY     FAIR      21  19  92 E6        29.70F WCI  13
$$

  *****  SOME WEATHER IN NEARBY STATES *****

CITY           SKY/WX    TMP DP  RH WIND       PRES   REMARKS
GLASGOW MT     CLOUDY    28  24  85 CALM      29.75F
GREAT FALLS MT LGT SNOW  24  21  88 CALM      29.69R VSB 3/4
CHEYENNE WY    FAIR      27  13  55 CALM      29.68F
SCOTTSBLUFF NE CLOUDY    25  21  85 CALM      29.74S
OMAHA NE       CLOUDY    32  27  81 NW8       29.92R WCI  25
DES MOINES IA  CLOUDY    32  29  88 NW10      29.86F WCI  24
DAVENPORT IA   CLOUDY    35  33  92 NW6       29.78F FOG
CHICAGO IL     CLOUDY    38  36  92 NW9       29.71R
EAU CLAIRE WI  FOG       34  34 100 W6        29.78S VSB 1/2
LA CROSSE WI   CLOUDY    38  35  89 NW7       29.79S
$$

  *****  SOME NATIONAL WEATHER *****

CITY           SKY/WX    TMP DP  RH WIND       PRES   REMARKS
LA GUARDIA NY  CLOUDY    43  36  76 NE25G36   29.84S
RALEIGH NC     CLOUDY    53  52  96 E16       29.21S
ATLANTA GA     LGT RAIN  48  48 100 W3        29.16F FOG
NEW ORLEANS LA CLOUDY    57  48  72 NW16G29   29.71R
OKLAHOMA CITY  FAIR      30  26  85 CALM      29.95F
ALBUQUERQUE NM MOCLDY    37  30  75 CALM      30.04F
SALT LAKE CITY CLOUDY    39  30  70 SE16G25   29.59F
LOS ANGELES CA CLOUDY    55  48  77 W17       29.90S
BOISE ID       CLOUDY    29  27  92 NW5       29.61R WCI  24
SEATTLE WA     CLOUDY    39  34  82 CALM      29.63R
$$

*** WEATHER ACROSS MANITOBA...SASKATCHEWAN AND ONTARIO ***
                ***ONTARIO***

CITY           SKY/WX    TMP DP  RH WIND       PRES   REMARKS
GERALDTON      LGT SNOW  32  32 100 E3        29.72F VSB 3/4
THUNDER BAY    CLOUDY    34  34 100 W5        29.74R
SIOUX LOOKOUT  CLOUDY    30  30 100 CALM      29.73R
TORONTO        CLOUDY    36  34  93 E7        29.76S
BIG TROUT LK   LGT SNOW  27  25  93 E5        29.81F WCI  21
PICKLE LAKE    NOT AVBL
DRYDEN         FOG       32  32 100 E3        29.71  VSB 1/4
KENORA         FOG       32  32 100 S2        29.71S VSB 1/4
$$
                *** MANITOBA***

CITY           SKY/WX    TMP DP  RH WIND       PRES   REMARKS
BRANDON        CLOUDY    27  23  86 W13       29.71S WCI  16
DAUPHIN        CLOUDY    30  27  86 W13       29.68R WCI  20
ISLAND LAKE    LGT SNOW  30  28  93 E5        29.76S
PILOT MOUND      N/A     27  25  93 W7          N/A  WCI  19
THE PAS        FLURRIES  27  25  93 NE6       29.77R WCI  20
THOMPSON       LGT SNOW  19  16  86 NE12G20   29.87R WCI   7
WINNIPEG       CLOUDY    30  27  86 SW8       29.72F WCI  23
LYNN LAKE      FLURRIES   9   5  85 NE13      29.93S WCI  -7
CHURCHILL      LGT SNOW  18  16  93 NE17      30.03S FOG     WCI   2
GILLAM         LGT SNOW  23  21  93 NE12      29.88S WCI  12
$$
                ***SASKATCHEWAN***

CITY           SKY/WX    TMP DP  RH WIND       PRES   REMARKS
ESTEVAN        CLOUDY    21  19  93 W13       29.77S WCI   9
KINDERSLEY     CRYSTALS  10   7  85 NW6       29.80S WCI   1
LLOYDMINSTER   FLURRIES  10   9  92 N9        29.84F WCI  -2
PRINCE ALBERT  LGT SNOW  18  14  86 N7        29.80R WCI   8
REGINA         CLOUDY    19  16  86 W13       29.77F WCI   7
YORKTON        FLURRIES  23  19  86 W12       29.70S WCC1F1C2F2C3F3C4F4C5F5C6F6C7F7C8F8C9F9CaFaCbFbCcFcCdFdCe!


USA.gov is the U.S. government's official web portal to all federal, state and local government web resources and services.